Home   Weather   Greens Fork   Past weeks
Flag for USA

Past Weather in Greens Fork, Indiana, USA — Yesterday and Last 2 Weeks

Now
57 °F

Clear.


Feels Like: 57 °F
Forecast: 80 / 57 °F
Wind: No wind

Location: Delaware County-Johnson Field

Current Time: Aug 7, 2020 at 6:32:10 am

Latest Report: Aug 7, 2020 at 5:53 am


Visibility: 10 mi

Pressure: 30.12 "Hg

Humidity: 87%

Dew Point: 53 °F

Location of Greens ForkLocation

Past Weather in Greens Fork — Graph

°F

Greens Fork Temperature Yesterday

Maximum temperature yesterday: 79 °F (at 5:53 pm)
Minimum temperature yesterday: 55 °F (at 5:35 am)
Average temperature yesterday: 67 °F

High & Low Weather Summary for the Past Weeks

 TemperatureHumidityPressure
High91 °F (Jul 26, 3:53 pm)91% (Jul 24, 6:12 am)30.17 "Hg (Jul 24, 6:12 am)
Low52 °F (Aug 5, 5:53 am)42% (Aug 6, 5:53 pm)29.71 "Hg (Aug 2, 3:53 am)
Average73 °F76%29.97 "Hg
* Reported Jul 23 4:34 am — Aug 7 4:53 am, Greens Fork. Weather by CustomWeather, © 2020

Note: Actual official high and low records may vary slightly from our data, if they occured in-between our weather recording intervals... More about our weather records

Greens Fork Weather History for the Previous 24 Hours

Scroll right to see more
 ConditionsComfort  
Time TempWeatherWind HumidityBarometerVisibility
4:53 am
Fri, Aug 7
56 °FClear.No wind87%30.11 "Hg9 mi
3:53 am58 °FClear.No wind87%30.11 "Hg10 mi
2:53 am58 °FClear.No wind87%30.11 "Hg10 mi
1:53 am59 °FClear.No wind87%30.10 "Hg10 mi
12:53 am59 °FClear.No wind90%30.09 "Hg10 mi
11:53 pm
Thu, Aug 6
62 °FClear.No wind83%30.09 "Hg10 mi
10:53 pm62 °FClear.No wind83%30.09 "Hg10 mi
9:53 pm64 °FClear.No wind81%30.08 "Hg10 mi
8:53 pm68 °FClear.No wind70%30.07 "Hg10 mi
7:53 pm74 °FSunny.5 mph56%30.07 "Hg10 mi
6:53 pm77 °FPassing clouds.5 mph48%30.07 "Hg10 mi
5:53 pm79 °FSunny.3 mph42%30.08 "Hg10 mi
4:53 pm78 °FSunny.6 mph43%30.08 "Hg10 mi
3:53 pm77 °FOvercast.8 mph47%30.09 "Hg10 mi
2:53 pm75 °FScattered clouds.8 mph48%30.11 "Hg10 mi
1:53 pm75 °FScattered clouds.10 mph52%30.11 "Hg10 mi
12:53 pm75 °FSunny.9 mph48%30.12 "Hg10 mi
11:53 am73 °FScattered clouds.7 mph55%30.12 "Hg10 mi
10:53 am74 °FSunny.6 mph62%30.12 "Hg10 mi
9:53 am70 °FSunny.3 mph66%30.13 "Hg10 mi
8:53 am66 °FSunny.No wind70%30.13 "Hg10 mi
7:53 am59 °FSunny.No wind90%30.11 "Hg10 mi
6:53 am56 °FSunny.No wind87%30.11 "Hg10 mi
Weather by CustomWeather, © 2020

See weather overview